sat.trackr.live / text

‹ back to catalog

YUNYAO-1 18

NORAD 58758 · 2024-009A

PAYLOAD ACTIVE UNKNOWN

§ Identity

Operator
Country
PRC
Launch date
2024-01-11
Launch site
YSLA
Launch vehicle
Mass (kg)
RCS (m²)

External: N2YO · Heavens-Above · Gunter

§ Orbital elements

Epoch: 2026-05-25T05:01:18.030144Z

Period
94.56 min
Inclination
49.9919°
Eccentricity
0.0004929
Mean motion
15.22817684 rev/d
Perigee alt
494.0 km
Apogee alt
500.7 km
Semi-major
6,875.5 km
B*
5.7957e-4
RAAN
267.4626°
Arg perigee
200.5349°
Mean anomaly
159.5408°
Rev number
13,134

§ Raw data

YUNYAO-1 181 58758U 24009A   26145.20923646  .00013456  00000+0  57957-3 0  99922 58758  49.9919 267.4626 0004929 200.5349 159.5408 15.22817684131344

JSON: /api/v1/satellites/58758 · /tle

For live sub-satellite position, see the globe view (requires WebGL).

§ Visibility from observer

Set your observer location to see the next 7 days of passes ≥ 10°. The values pass through the URL so the page stays shareable.

No JS? Fill the form by hand. The geolocation button needs JavaScript.